FW0442 Weather Reports


time (UTC)temp
C
wind
direction
speed
KPH
gust
KPH
rain 1hr
cm
rain 24hr
cm
rain mn
cm
humidity
%
barometer
mb
20260505214202 10 69 3.2 8.0 0.00 0.00 0.00 84 1013.6
20260505211202 10 16 0.0 3.2 0.00 0.00 0.00 84 1013.6
20260505204201 10 4 0.0 4.8 0.00 0.00 0.00 83 1013.4
20260505201202 10 65 1.6 8.0 0.00 0.00 0.00 82 1013.3
20260505194159 10 30 1.6 9.7 0.00 0.00 0.00 79 1013.1
20260505191159 10 295 3.2 9.7 0.00 0.00 0.00 78 1012.9
20260505184158 11 38 6.4 9.7 0.00 0.00 0.00 77 1012.8
20260505181201 11 6 3.2 9.7 0.00 0.00 0.00 76 1012.8
20260505171157 12 326 1.6 16.1 0.00 0.00 0.00 75 1012.9
20260505164155 12 41 4.8 14.5 0.00 0.00 0.00 71 1012.8
20260505161155 13 41 3.2 11.3 0.00 0.00 0.00 69 1012.9
20260505151154 14 354 3.2 11.3 0.00 0.00 0.00 68 1013.0
20260505121151 12 44 3.2 16.1 0.00 0.00 0.00 74 1013.5
20260505114153 13 306 3.2 11.3 0.00 0.00 0.00 71 1013.4
20260505111151 13 20 3.2 16.1 0.00 0.00 0.00 68 1013.4
20260505101149 12 10 6.4 14.5 0.00 0.00 0.00 64 1013.9
20260505091147 11 345 8.0 20.9 0.00 0.00 0.00 68 1013.8
20260505084147 11 269 3.2 11.3 0.00 0.00 0.00 71 1014.0
20260505074146 10 34 6.4 16.1 0.00 0.00 0.00 76 1014.2
20260505071147 9 62 3.2 11.3 0.00 0.00 0.00 78 1014.3
20260505064142 9 337 0.0 4.8 0.00 0.00 0.00 78 1014.3
20260505061144 9 25 0.0 4.8 0.00 0.00 0.00 81 1014.3
20260505054144 8 14 0.0 4.8 0.00 0.00 0.00 84 1014.1
20260505053532 8 13 0.0 4.8 0.00 0.00 0.00 84 1014.1
20260505050531 8 71 1.6 3.2 0.00 0.00 0.00 85 1014.1
20260505040532 8 75 0.0 1.6 0.00 0.00 0.00 89 1014.0
20260505020531 8 49 0.0 1.6 0.00 0.00 0.00 92 1014.1
20260505013531 8 49 0.0 3.2 0.00 0.00 0.00 92 1014.3
20260505010531 8 55 0.0 4.8 0.00 0.00 0.00 92 1014.5
20260505003531 8 41 0.0 3.2 0.00 0.00 0.00 94 1014.7
20260505000531 8 97 0.0 4.8 0.00 0.00 0.00 93 1014.9
20260504233530 9 324 1.6 8.0 0.00 0.00 0.00 93 1015.1
20260504223531 10 25 0.0 1.6 0.00 0.00 0.00 93 1015.1
20260504220530 9 326 0.0 144.8 0.00 0.00 0.00 93 1015.1